Time,TemperatureF,DewpointF,PressureIn,WindDirection,WindDirectionDegrees,WindSpeedMPH,WindSpeedGustMPH,Humidity,HourlyPrecipIn,Conditions,Clouds,dailyrainin,SoftwareType,DateUTC
2013-03-18 00:00:00,19.4,7.1,30.27,East,90,6.0,11.2,58,0.00,,CLR,0.00,VWS V14.01,2013-03-18 04:00:00,
2013-03-18 00:01:00,19.4,7.1,30.27,ESE,112,8.7,11.2,58,0.00,,CLR,0.00,VWS V14.01,2013-03-18 04:01:00,
2013-03-18 00:02:00,19.4,7.1,30.27,SE,135,7.4,11.2,58,0.00,,CLR,0.00,VWS V14.01,2013-03-18 04:02:00,
2013-03-18 00:05:00,19.4,7.1,30.27,ESE,112,8.5,10.5,58,0.00,,CLR,0.00,VWS V14.01,2013-03-18 04:05:00,
2013-03-18 00:10:00,19.2,6.9,30.27,ESE,112,5.6,10.5,58,0.00,,CLR,0.00,VWS V14.01,2013-03-18 04:10:00,
2013-03-18 00:15:00,19.2,6.9,30.27,East,90,4.7,10.5,58,0.00,,CLR,0.00,VWS V14.01,2013-03-18 04:15:00,
2013-03-18 00:20:00,19.0,6.7,30.27,East,90,4.0,10.5,58,0.00,,CLR,0.00,VWS V14.01,2013-03-18 04:20:00,
2013-03-18 00:25:00,19.2,7.2,30.27,ESE,112,6.3,10.5,59,0.00,,CLR,0.00,VWS V14.01,2013-03-18 04:25:00,
2013-03-18 00:30:00,19.2,7.2,30.27,ESE,112,6.0,11.0,59,0.00,,CLR,0.00,VWS V14.01,2013-03-18 04:30:00,
2013-03-18 00:35:00,19.2,7.2,30.27,East,90,5.6,11.0,59,0.00,,CLR,0.00,VWS V14.01,2013-03-18 04:35:00,
2013-03-18 00:41:00,19.4,7.4,30.27,East,90,6.3,11.0,59,0.00,,CLR,0.00,VWS V14.01,2013-03-18 04:41:00,
2013-03-18 00:46:00,19.2,7.6,30.27,East,90,3.8,11.0,60,0.00,,CLR,0.00,VWS V14.01,2013-03-18 04:46:00,
2013-03-18 00:51:00,19.2,7.6,30.24,ESE,112,3.6,11.0,60,0.00,,CLR,0.00,VWS V14.01,2013-03-18 04:51:00,
2013-03-18 00:56:00,19.0,7.4,30.24,ESE,112,3.8,11.0,60,0.00,,CLR,0.00,VWS V14.01,2013-03-18 04:56:00,
2013-03-18 01:00:00,19.0,7.8,30.24,East,90,3.4,11.0,61,0.00,,CLR,0.00,VWS V14.01,2013-03-18 05:00:00,
2013-03-18 01:01:00,19.0,7.8,30.24,ESE,112,6.5,11.0,61,0.00,,CLR,0.00,VWS V14.01,2013-03-18 05:01:00,
2013-03-18 01:06:00,19.0,7.8,30.24,East,90,3.8,5.8,61,0.00,,CLR,0.00,VWS V14.01,2013-03-18 05:06:00,
2013-03-18 01:11:00,19.0,7.8,30.24,East,90,8.1,8.1,61,0.00,,CLR,0.00,VWS V14.01,2013-03-18 05:11:00,
2013-03-18 01:16:00,19.2,8.4,30.24,East,90,5.4,8.1,62,0.00,,CLR,0.00,VWS V14.01,2013-03-18 05:16:00,
2013-03-18 01:21:00,19.2,8.4,30.24,East,90,4.3,8.1,62,0.00,,CLR,0.00,VWS V14.01,2013-03-18 05:21:00,
2013-03-18 01:27:00,19.2,8.4,30.24,East,90,5.6,8.1,62,0.00,,CLR,0.00,VWS V14.01,2013-03-18 05:27:00,
2013-03-18 01:33:00,19.2,8.7,30.24,ESE,112,6.5,8.1,63,0.00,,CLR,0.00,VWS V14.01,2013-03-18 05:33:00,
2013-03-18 01:38:00,19.4,8.9,30.24,ESE,112,4.9,10.3,63,0.00,,CLR,0.00,VWS V14.01,2013-03-18 05:38:00,
2013-03-18 01:43:00,19.4,8.9,30.24,ENE,68,3.8,10.3,63,0.00,,CLR,0.00,VWS V14.01,2013-03-18 05:43:00,
2013-03-18 01:48:00,19.4,8.9,30.24,ESE,112,5.6,10.3,63,0.00,,CLR,0.00,VWS V14.01,2013-03-18 05:48:00,
2013-03-18 01:53:00,19.4,9.2,30.24,East,90,7.4,10.3,64,0.00,,CLR,0.00,VWS V14.01,2013-03-18 05:53:00,
2013-03-18 01:58:00,19.6,9.1,30.24,NE,45,4.3,10.3,63,0.00,,CLR,0.00,VWS V14.01,2013-03-18 05:58:00,
2013-03-18 02:00:00,19.4,8.9,30.21,ENE,68,4.3,10.3,63,0.00,,CLR,0.00,VWS V14.01,2013-03-18 06:00:00,
2013-03-18 02:03:00,19.4,8.9,30.21,East,90,3.6,4.9,63,0.00,,CLR,0.00,VWS V14.01,2013-03-18 06:03:00,
2013-03-18 02:08:00,19.4,9.2,30.21,ESE,112,5.4,7.8,64,0.00,,CLR,0.00,VWS V14.01,2013-03-18 06:08:00,
2013-03-18 02:13:00,19.6,9.1,30.21,ESE,112,7.4,8.1,63,0.00,,CLR,0.00,VWS V14.01,2013-03-18 06:13:00,
2013-03-18 02:18:00,19.6,8.7,30.21,ESE,112,3.8,8.1,62,0.00,,CLR,0.00,VWS V14.01,2013-03-18 06:18:00,
2013-03-18 02:23:00,19.8,8.9,30.21,ESE,112,6.0,8.5,62,0.00,,CLR,0.00,VWS V14.01,2013-03-18 06:23:00,
2013-03-18 02:28:00,19.8,8.9,30.21,ESE,112,5.4,8.5,62,0.00,,CLR,0.00,VWS V14.01,2013-03-18 06:28:00,
2013-03-18 02:34:00,19.8,8.5,30.21,ESE,112,4.9,8.5,61,0.00,,CLR,0.00,VWS V14.01,2013-03-18 06:34:00,
2013-03-18 02:39:00,19.8,8.5,30.21,East,90,6.5,8.5,61,0.00,,CLR,0.00,VWS V14.01,2013-03-18 06:39:00,
2013-03-18 02:44:00,19.8,8.5,30.21,ESE,112,4.9,8.5,61,0.00,,CLR,0.00,VWS V14.01,2013-03-18 06:44:00,
2013-03-18 02:49:00,19.8,8.1,30.21,East,90,3.4,8.5,60,0.00,,CLR,0.00,VWS V14.01,2013-03-18 06:49:00,
2013-03-18 02:54:00,19.8,8.1,30.21,ENE,68,4.9,8.5,60,0.00,,CLR,0.00,VWS V14.01,2013-03-18 06:54:00,
2013-03-18 02:59:00,19.6,8.0,30.21,East,90,3.4,8.5,60,0.00,,CLR,0.00,VWS V14.01,2013-03-18 06:59:00,
2013-03-18 03:00:00,19.6,8.0,30.21,East,90,3.1,8.5,60,0.00,,CLR,0.00,VWS V14.01,2013-03-18 07:00:00,
2013-03-18 03:04:00,19.6,8.0,30.21,ESE,112,4.0,5.8,60,0.00,,CLR,0.00,VWS V14.01,2013-03-18 07:04:00,
2013-03-18 03:09:00,19.6,8.0,30.21,East,90,4.0,7.4,60,0.00,,CLR,0.00,VWS V14.01,2013-03-18 07:09:00,
2013-03-18 03:14:00,19.4,8.2,30.21,ENE,68,6.0,7.8,61,0.00,,CLR,0.00,VWS V14.01,2013-03-18 07:14:00,
2013-03-18 03:19:00,19.4,8.2,30.21,East,90,5.6,7.8,61,0.00,,CLR,0.00,VWS V14.01,2013-03-18 07:19:00,
2013-03-18 03:24:00,19.4,8.2,30.21,East,90,5.6,7.8,61,0.00,,CLR,0.00,VWS V14.01,2013-03-18 07:24:00,
2013-03-18 03:30:00,19.4,8.2,30.21,East,90,5.4,7.8,61,0.00,,CLR,0.00,VWS V14.01,2013-03-18 07:30:00,
2013-03-18 03:35:00,19.2,8.4,30.21,East,90,5.4,7.8,62,0.00,,CLR,0.00,VWS V14.01,2013-03-18 07:35:00,
2013-03-18 03:40:00,19.2,8.4,30.21,East,90,5.8,7.8,62,0.00,,CLR,0.00,VWS V14.01,2013-03-18 07:40:00,
2013-03-18 03:45:00,19.4,8.5,30.21,East,90,5.6,7.8,62,0.00,,CLR,0.00,VWS V14.01,2013-03-18 07:45:00,
2013-03-18 03:50:00,19.4,8.2,30.18,ENE,68,7.4,7.8,61,0.00,,CLR,0.00,VWS V14.01,2013-03-18 07:50:00,
2013-03-18 03:55:00,19.4,8.2,30.18,East,90,6.9,7.8,61,0.00,,CLR,0.00,VWS V14.01,2013-03-18 07:55:00,
2013-03-18 04:00:00,19.6,8.0,30.18,ENE,68,5.6,7.8,60,0.00,,CLR,0.00,VWS V14.01,2013-03-18 08:00:00,
2013-03-18 04:05:00,19.8,8.1,30.18,ESE,112,5.4,8.1,60,0.00,,CLR,0.00,VWS V14.01,2013-03-18 08:05:00,
2013-03-18 04:10:00,19.9,7.9,30.18,ENE,68,4.0,8.1,59,0.00,,CLR,0.00,VWS V14.01,2013-03-18 08:10:00,
2013-03-18 04:15:00,19.9,7.9,30.18,ENE,68,5.4,8.5,59,0.00,,CLR,0.00,VWS V14.01,2013-03-18 08:15:00,
2013-03-18 04:20:00,19.9,7.9,30.15,ESE,112,5.4,8.5,59,0.00,,CLR,0.00,VWS V14.01,2013-03-18 08:20:00,
2013-03-18 04:26:00,19.9,7.9,30.15,ESE,112,4.9,8.5,59,0.00,,CLR,0.00,VWS V14.01,2013-03-18 08:26:00,
2013-03-18 04:31:00,19.9,7.9,30.15,East,90,7.2,8.5,59,0.00,,CLR,0.00,VWS V14.01,2013-03-18 08:31:00,
2013-03-18 04:36:00,19.9,7.9,30.15,ESE,112,5.6,8.5,59,0.00,,CLR,0.00,VWS V14.01,2013-03-18 08:36:00,
2013-03-18 04:41:00,20.1,8.1,30.15,East,90,6.0,8.5,59,0.00,,CLR,0.00,VWS V14.01,2013-03-18 08:41:00,
2013-03-18 04:46:00,20.1,8.1,30.15,ESE,112,9.2,9.2,59,0.00,,CLR,0.00,VWS V14.01,2013-03-18 08:46:00,
2013-03-18 04:51:00,20.3,8.6,30.15,ESE,112,6.9,9.2,60,0.00,,CLR,0.00,VWS V14.01,2013-03-18 08:51:00,
2013-03-18 04:56:00,20.3,8.6,30.15,ESE,112,6.0,9.2,60,0.00,,CLR,0.00,VWS V14.01,2013-03-18 08:56:00,
2013-03-18 05:00:00,20.3,8.6,30.15,East,90,6.3,9.2,60,0.00,,CLR,0.00,VWS V14.01,2013-03-18 09:00:00,
2013-03-18 05:01:00,20.3,8.6,30.15,ESE,112,6.5,9.2,60,0.00,,CLR,0.00,VWS V14.01,2013-03-18 09:01:00,
2013-03-18 05:06:00,20.3,8.6,30.15,East,90,5.4,6.5,60,0.00,,CLR,0.00,VWS V14.01,2013-03-18 09:06:00,
2013-03-18 05:12:00,20.3,9.0,30.15,ESE,112,6.5,8.5,61,0.00,,CLR,0.00,VWS V14.01,2013-03-18 09:12:00,
2013-03-18 05:17:00,20.3,9.0,30.12,East,90,4.3,8.5,61,0.00,,CLR,0.00,VWS V14.01,2013-03-18 09:17:00,
2013-03-18 05:22:00,20.5,9.6,30.12,ENE,68,4.9,8.5,62,0.00,,CLR,0.00,VWS V14.01,2013-03-18 09:22:00,
2013-03-18 05:27:00,20.5,9.9,30.12,East,90,5.8,8.5,63,0.00,,CLR,0.00,VWS V14.01,2013-03-18 09:27:00,
2013-03-18 05:32:00,20.5,10.2,30.12,East,90,6.5,8.7,64,0.00,,CLR,0.00,VWS V14.01,2013-03-18 09:32:00,
2013-03-18 05:37:00,20.7,10.8,30.12,ENE,68,7.4,8.7,65,0.00,,CLR,0.00,VWS V14.01,2013-03-18 09:37:00,
2013-03-18 05:42:00,20.8,10.9,30.12,East,90,6.0,9.4,65,0.00,,CLR,0.00,VWS V14.01,2013-03-18 09:42:00,
2013-03-18 05:47:00,21.0,11.5,30.12,East,90,7.8,9.4,66,0.00,,CLR,0.00,VWS V14.01,2013-03-18 09:47:00,
2013-03-18 05:52:00,21.2,11.6,30.12,East,90,5.8,9.4,66,0.00,,CLR,0.00,VWS V14.01,2013-03-18 09:52:00,
2013-03-18 05:57:00,21.2,11.6,30.12,ENE,68,6.5,9.4,66,0.00,,CLR,0.00,VWS V14.01,2013-03-18 09:57:00,
2013-03-18 06:00:00,21.2,12.0,30.12,East,90,7.6,9.4,67,0.00,,CLR,0.00,VWS V14.01,2013-03-18 10:00:00,
2013-03-18 06:02:00,21.2,12.0,30.12,East,90,7.6,9.4,67,0.00,,CLR,0.00,VWS V14.01,2013-03-18 10:02:00,
2013-03-18 06:08:00,21.2,12.3,30.09,ENE,68,8.1,8.5,68,0.00,,CLR,0.00,VWS V14.01,2013-03-18 10:08:00,
2013-03-18 06:13:00,21.4,12.8,30.09,ENE,68,7.2,8.5,69,0.00,,CLR,0.00,VWS V14.01,2013-03-18 10:13:00,
2013-03-18 06:18:00,21.6,13.0,30.06,East,90,5.8,9.0,69,0.00,,CLR,0.00,VWS V14.01,2013-03-18 10:18:00,
2013-03-18 06:23:00,21.7,13.1,30.06,East,90,9.8,9.8,69,0.00,,CLR,0.00,VWS V14.01,2013-03-18 10:23:00,
2013-03-18 06:28:00,22.1,13.2,30.06,East,90,7.4,10.5,68,0.00,,CLR,0.00,VWS V14.01,2013-03-18 10:28:00,
2013-03-18 06:33:00,22.1,13.2,30.06,East,90,7.6,10.5,68,0.00,,CLR,0.00,VWS V14.01,2013-03-18 10:33:00,
2013-03-18 06:38:00,22.3,13.3,30.06,East,90,10.5,11.0,68,0.00,,CLR,0.00,VWS V14.01,2013-03-18 10:38:00,
2013-03-18 06:43:00,22.5,13.5,30.06,East,90,9.2,11.0,68,0.00,,CLR,0.00,VWS V14.01,2013-03-18 10:43:00,
2013-03-18 06:48:00,22.5,13.5,30.09,East,90,12.3,12.3,68,0.00,,CLR,0.00,VWS V14.01,2013-03-18 10:48:00,
2013-03-18 06:53:00,22.6,13.7,30.09,East,90,7.4,12.3,68,0.00,,CLR,0.00,VWS V14.01,2013-03-18 10:53:00,
2013-03-18 06:58:00,22.6,13.7,30.09,East,90,7.4,12.3,68,0.00,,CLR,0.00,VWS V14.01,2013-03-18 10:58:00,
2013-03-18 07:00:00,22.8,13.9,30.09,ENE,68,7.4,12.3,68,0.00,,CLR,0.00,VWS V14.01,2013-03-18 11:00:00,
2013-03-18 07:03:00,22.8,13.9,30.09,East,90,7.8,7.8,68,0.00,,CLR,0.00,VWS V14.01,2013-03-18 11:03:00,
2013-03-18 07:08:00,22.8,13.9,30.09,East,90,9.6,12.8,68,0.00,,CLR,0.00,VWS V14.01,2013-03-18 11:08:00,
2013-03-18 07:14:00,22.8,13.9,30.09,East,90,10.7,12.8,68,0.00,,CLR,0.00,VWS V14.01,2013-03-18 11:14:00,
2013-03-18 07:19:00,23.0,14.4,30.03,East,90,6.3,12.8,69,0.00,,CLR,0.00,VWS V14.01,2013-03-18 11:19:00,
2013-03-18 07:24:00,23.0,14.4,30.03,ESE,112,8.7,12.8,69,0.00,,CLR,0.00,VWS V14.01,2013-03-18 11:24:00,
2013-03-18 07:29:00,23.2,14.2,30.03,ESE,112,7.4,12.8,68,0.00,,CLR,0.00,VWS V14.01,2013-03-18 11:29:00,
2013-03-18 07:34:00,23.0,14.4,30.03,East,90,11.0,12.8,69,0.00,,CLR,0.00,VWS V14.01,2013-03-18 11:34:00,
2013-03-18 07:39:00,23.2,14.5,30.03,ENE,68,7.6,13.0,69,0.00,,CLR,0.00,VWS V14.01,2013-03-18 11:39:00,
2013-03-18 07:44:00,23.2,14.2,30.03,ESE,112,6.3,13.0,68,0.00,,CLR,0.00,VWS V14.01,2013-03-18 11:44:00,
2013-03-18 07:49:00,23.2,14.2,30.00,ESE,112,9.4,13.0,68,0.00,,CLR,0.00,VWS V14.01,2013-03-18 11:49:00,
2013-03-18 07:54:00,23.4,14.4,30.00,East,90,7.8,13.0,68,0.00,,CLR,0.00,VWS V14.01,2013-03-18 11:54:00,
2013-03-18 07:59:00,23.5,14.6,30.00,ENE,68,6.0,13.0,68,0.00,,CLR,0.00,VWS V14.01,2013-03-18 11:59:00,
2013-03-18 08:00:00,23.5,14.6,30.03,East,90,5.4,13.0,68,0.00,,CLR,0.00,VWS V14.01,2013-03-18 12:00:00,
2013-03-18 08:04:00,23.5,14.2,30.03,East,90,8.7,8.7,67,0.00,,CLR,0.00,VWS V14.01,2013-03-18 12:04:00,
2013-03-18 08:09:00,23.7,14.4,30.03,East,90,6.0,10.1,67,0.00,,CLR,0.00,VWS V14.01,2013-03-18 12:09:00,
2013-03-18 08:14:00,24.1,14.7,30.03,ESE,112,7.6,10.1,67,0.00,,CLR,0.00,VWS V14.01,2013-03-18 12:14:00,
2013-03-18 08:19:00,24.3,14.6,30.03,East,90,12.5,12.5,66,0.00,,CLR,0.00,VWS V14.01,2013-03-18 12:19:00,
2013-03-18 08:24:00,24.4,14.0,30.03,ESE,112,5.8,12.5,64,0.00,,CLR,0.00,VWS V14.01,2013-03-18 12:24:00,
2013-03-18 08:30:00,24.8,14.0,30.03,ESE,112,12.5,12.5,63,0.00,,CLR,0.00,VWS V14.01,2013-03-18 12:30:00,
2013-03-18 08:35:00,25.0,13.8,30.00,ENE,68,8.7,12.5,62,0.00,,CLR,0.00,VWS V14.01,2013-03-18 12:35:00,
2013-03-18 08:40:00,25.2,13.6,30.00,East,90,7.6,12.5,61,0.00,,CLR,0.00,VWS V14.01,2013-03-18 12:40:00,
2013-03-18 08:45:00,25.5,13.6,30.00,East,90,10.1,13.0,60,0.00,,CLR,0.00,VWS V14.01,2013-03-18 12:45:00,
2013-03-18 08:50:00,25.7,13.4,29.97,ESE,112,10.1,13.0,59,0.00,,CLR,0.00,VWS V14.01,2013-03-18 12:50:00,
2013-03-18 08:55:00,26.1,13.3,29.97,East,90,10.5,13.0,58,0.00,,CLR,0.00,VWS V14.01,2013-03-18 12:55:00,
2013-03-18 09:00:00,26.2,13.1,29.97,ENE,68,8.5,14.8,57,0.00,,CLR,0.00,VWS V14.01,2013-03-18 13:00:00,
2013-03-18 09:05:00,26.4,12.9,29.94,East,90,10.7,12.5,56,0.00,,CLR,0.00,VWS V14.01,2013-03-18 13:05:00,
2013-03-18 09:10:00,26.6,13.0,29.94,East,90,7.8,14.8,56,0.00,,CLR,0.00,VWS V14.01,2013-03-18 13:10:00,
2013-03-18 09:15:00,27.0,13.0,29.94,East,90,8.7,14.8,55,0.00,,CLR,0.00,VWS V14.01,2013-03-18 13:15:00,
2013-03-18 09:20:00,27.3,13.3,29.97,ESE,112,8.1,14.8,55,0.00,,CLR,0.00,VWS V14.01,2013-03-18 13:20:00,
2013-03-18 09:26:00,27.5,13.1,29.97,East,90,7.8,15.7,54,0.00,,CLR,0.00,VWS V14.01,2013-03-18 13:26:00,
2013-03-18 09:31:00,28.0,13.6,29.97,ESE,112,7.6,15.7,54,0.00,,CLR,0.00,VWS V14.01,2013-03-18 13:31:00,
2013-03-18 09:36:00,28.8,13.8,29.94,East,90,12.8,15.7,53,0.00,,CLR,0.00,VWS V14.01,2013-03-18 13:36:00,
2013-03-18 09:42:00,29.3,13.4,29.94,ESE,112,10.1,15.7,51,0.00,,CLR,0.00,VWS V14.01,2013-03-18 13:42:00,
2013-03-18 09:47:00,29.7,13.8,29.91,East,90,8.1,16.6,51,0.00,,CLR,0.00,VWS V14.01,2013-03-18 13:47:00,
2013-03-18 09:52:00,30.2,13.8,29.91,ESE,112,9.8,16.6,50,0.00,,CLR,0.00,VWS V14.01,2013-03-18 13:52:00,
2013-03-18 09:57:00,30.6,14.1,29.91,East,90,10.7,16.6,50,0.00,,CLR,0.00,VWS V14.01,2013-03-18 13:57:00,
2013-03-18 10:00:00,30.2,14.7,29.94,ESE,112,8.5,16.6,52,0.00,,CLR,0.00,VWS V14.01,2013-03-18 14:00:00,
2013-03-18 10:02:00,30.2,14.7,29.94,ESE,112,8.1,8.5,52,0.00,,CLR,0.00,VWS V14.01,2013-03-18 14:02:00,
2013-03-18 10:07:00,30.9,14.9,29.94,ESE,112,7.4,11.0,51,0.00,,CLR,0.00,VWS V14.01,2013-03-18 14:07:00,
2013-03-18 10:12:00,31.1,14.6,29.94,East,90,7.8,11.0,50,0.00,,CLR,0.00,VWS V14.01,2013-03-18 14:12:00,
2013-03-18 10:18:00,31.1,13.7,29.91,ESE,112,8.5,14.8,48,0.00,,CLR,0.00,VWS V14.01,2013-03-18 14:18:00,
2013-03-18 10:23:00,31.3,14.4,29.91,ESE,112,13.4,15.4,49,0.00,,CLR,0.00,VWS V14.01,2013-03-18 14:23:00,
2013-03-18 10:28:00,31.3,15.3,29.91,ESE,112,10.3,16.1,51,0.00,,CLR,0.00,VWS V14.01,2013-03-18 14:28:00,
2013-03-18 10:33:00,31.3,14.8,29.88,ESE,112,8.5,16.1,50,0.00,,CLR,0.00,VWS V14.01,2013-03-18 14:33:00,
2013-03-18 10:38:00,31.8,15.8,29.88,East,90,11.0,16.1,51,0.00,,CLR,0.00,VWS V14.01,2013-03-18 14:38:00,
2013-03-18 10:43:00,31.3,15.3,29.88,ESE,112,10.7,16.1,51,0.00,,CLR,0.00,VWS V14.01,2013-03-18 14:43:00,
2013-03-18 10:49:00,30.9,15.4,29.88,ESE,112,10.1,16.1,52,0.00,,CLR,0.00,VWS V14.01,2013-03-18 14:49:00,
2013-03-18 10:54:00,30.9,14.9,29.88,ESE,112,8.5,16.1,51,0.00,,CLR,0.00,VWS V14.01,2013-03-18 14:54:00,
2013-03-18 10:59:00,31.6,16.0,29.88,ESE,112,6.3,16.1,52,0.00,,CLR,0.00,VWS V14.01,2013-03-18 14:59:00,
2013-03-18 11:00:00,31.5,15.4,29.85,ESE,112,12.1,16.1,51,0.00,,CLR,0.00,VWS V14.01,2013-03-18 15:00:00,
2013-03-18 11:04:00,31.6,15.6,29.85,ESE,112,9.8,12.3,51,0.00,,CLR,0.00,VWS V14.01,2013-03-18 15:04:00,
2013-03-18 11:09:00,32.0,15.9,29.85,ESE,112,7.6,13.2,51,0.00,,CLR,0.00,VWS V14.01,2013-03-18 15:09:00,
2013-03-18 11:14:00,32.2,16.5,29.85,ESE,112,6.0,13.2,52,0.00,,CLR,0.00,VWS V14.01,2013-03-18 15:14:00,
2013-03-18 11:19:00,32.5,16.9,29.85,ESE,112,15.2,17.7,52,0.00,,CLR,0.00,VWS V14.01,2013-03-18 15:19:00,
2013-03-18 11:24:00,32.7,17.0,29.85,SE,135,8.7,17.7,52,0.00,,CLR,0.00,VWS V14.01,2013-03-18 15:24:00,
2013-03-18 11:29:00,33.3,17.1,29.85,ESE,112,10.7,17.7,51,0.00,,CLR,0.00,VWS V14.01,2013-03-18 15:29:00,
2013-03-18 11:35:00,33.6,17.4,29.85,East,90,10.7,17.7,51,0.00,,CLR,0.00,VWS V14.01,2013-03-18 15:35:00,
2013-03-18 11:40:00,33.4,17.3,29.85,ESE,112,12.5,17.7,51,0.00,,CLR,0.00,VWS V14.01,2013-03-18 15:40:00,
2013-03-18 11:45:00,33.6,17.9,29.85,ESE,112,12.8,17.7,52,0.00,,CLR,0.00,VWS V14.01,2013-03-18 15:45:00,
2013-03-18 11:50:00,33.4,17.3,29.82,ESE,112,10.7,17.7,51,0.00,,CLR,0.00,VWS V14.01,2013-03-18 15:50:00,
2013-03-18 11:55:00,33.8,17.1,29.82,East,90,17.0,17.7,50,0.00,,CLR,0.00,VWS V14.01,2013-03-18 15:55:00,
2013-03-18 12:00:00,34.0,17.8,29.82,ESE,112,7.6,17.7,51,0.00,,CLR,0.00,VWS V14.01,2013-03-18 16:00:00,
2013-03-18 12:01:00,34.0,17.8,29.82,SE,135,7.6,17.7,51,0.00,,CLR,0.00,VWS V14.01,2013-03-18 16:01:00,
2013-03-18 12:06:00,34.2,17.9,29.79,SE,135,13.2,14.5,51,0.00,,CLR,0.00,VWS V14.01,2013-03-18 16:06:00,
2013-03-18 12:11:00,33.8,18.0,29.79,SE,135,8.5,14.5,52,0.00,,CLR,0.00,VWS V14.01,2013-03-18 16:11:00,
2013-03-18 12:16:00,33.4,18.6,29.79,SE,135,8.7,14.5,54,0.00,,CLR,0.00,VWS V14.01,2013-03-18 16:16:00,
2013-03-18 12:22:00,33.1,18.3,29.79,ESE,112,13.4,14.5,54,0.00,,CLR,0.00,VWS V14.01,2013-03-18 16:22:00,
2013-03-18 12:27:00,32.9,18.5,29.79,ESE,112,12.1,14.5,55,0.00,,CLR,0.00,VWS V14.01,2013-03-18 16:27:00,
2013-03-18 12:32:00,32.7,18.8,29.76,ESE,112,15.4,18.1,56,0.00,,CLR,0.00,VWS V14.01,2013-03-18 16:32:00,
2013-03-18 12:37:00,32.5,18.6,29.76,ESE,112,13.0,18.1,56,0.00,,CLR,0.00,VWS V14.01,2013-03-18 16:37:00,
2013-03-18 12:42:00,32.5,19.0,29.76,ESE,112,11.4,18.1,57,0.00,,CLR,0.00,VWS V14.01,2013-03-18 16:42:00,
2013-03-18 12:47:00,32.5,19.4,29.76,ESE,112,13.2,18.1,58,0.00,,CLR,0.00,VWS V14.01,2013-03-18 16:47:00,
2013-03-18 12:52:00,32.7,20.0,29.76,ESE,112,10.7,18.1,59,0.00,,CLR,0.00,VWS V14.01,2013-03-18 16:52:00,
2013-03-18 12:57:00,32.7,20.0,29.76,SSE,158,7.8,18.1,59,0.00,,CLR,0.00,VWS V14.01,2013-03-18 16:57:00,
2013-03-18 13:00:00,32.7,20.4,29.80,ESE,112,8.5,18.1,60,0.00,,CLR,0.00,VWS V14.01,2013-03-18 17:00:00,
2013-03-18 13:02:00,32.9,20.5,29.79,ESE,112,8.5,8.5,60,0.00,,CLR,0.00,VWS V14.01,2013-03-18 17:02:00,
2013-03-18 13:07:00,33.1,21.1,29.79,SE,135,6.5,8.5,61,0.00,,CLR,0.00,VWS V14.01,2013-03-18 17:07:00,
2013-03-18 13:12:00,33.4,21.5,29.79,ESE,112,6.7,8.5,61,0.00,,CLR,0.00,VWS V14.01,2013-03-18 17:12:00,
2013-03-18 13:17:00,33.8,21.4,29.76,ESE,112,9.8,14.8,60,0.00,,CLR,0.00,VWS V14.01,2013-03-18 17:17:00,
2013-03-18 13:23:00,34.0,21.2,29.76,ESE,112,10.7,14.8,59,0.00,,CLR,0.00,VWS V14.01,2013-03-18 17:23:00,
2013-03-18 13:28:00,34.2,21.7,29.76,SE,135,8.5,14.8,60,0.00,,CLR,0.00,VWS V14.01,2013-03-18 17:28:00,
2013-03-18 13:33:00,34.5,22.1,29.76,ESE,112,11.0,14.8,60,0.00,,CLR,0.00,VWS V14.01,2013-03-18 17:33:00,
2013-03-18 13:38:00,34.9,22.4,29.76,ESE,112,6.3,14.8,60,0.00,,CLR,0.00,VWS V14.01,2013-03-18 17:38:00,
2013-03-18 13:43:00,34.5,21.7,29.76,ESE,112,7.6,14.8,59,0.00,,CLR,0.00,VWS V14.01,2013-03-18 17:43:00,
2013-03-18 13:48:00,34.2,21.7,29.74,ESE,112,12.3,14.8,60,0.00,,CLR,0.00,VWS V14.01,2013-03-18 17:48:00,
2013-03-18 13:53:00,33.8,22.2,29.74,East,90,8.7,15.2,62,0.00,,CLR,0.00,VWS V14.01,2013-03-18 17:53:00,
2013-03-18 13:58:00,33.6,22.8,29.74,SE,135,6.5,15.2,64,0.00,,CLR,0.00,VWS V14.01,2013-03-18 17:58:00,
2013-03-18 14:00:00,33.4,23.0,29.74,ESE,112,8.7,19.0,65,0.00,,CLR,0.00,VWS V14.01,2013-03-18 18:00:00,
2013-03-18 14:03:00,33.4,23.0,29.74,ESE,112,8.7,19.0,65,0.00,,CLR,0.00,VWS V14.01,2013-03-18 18:03:00,
2013-03-18 14:08:00,33.4,23.7,29.74,ESE,112,11.0,11.0,67,0.00,,CLR,0.00,VWS V14.01,2013-03-18 18:08:00,
2013-03-18 14:13:00,33.6,24.9,29.74,ESE,112,7.6,11.0,70,0.00,,CLR,0.00,VWS V14.01,2013-03-18 18:13:00,
2013-03-18 14:18:00,33.8,25.1,29.71,SE,135,8.1,11.0,70,0.00,,CLR,0.00,VWS V14.01,2013-03-18 18:18:00,
2013-03-18 14:23:00,33.8,25.1,29.71,SE,135,8.1,11.0,70,0.00,,CLR,0.00,VWS V14.01,2013-03-18 18:23:00,
2013-03-18 14:28:00,33.6,24.9,29.71,SE,135,8.1,11.0,70,0.00,,CLR,0.00,VWS V14.01,2013-03-18 18:28:00,
2013-03-18 14:33:00,33.4,25.1,29.76,SE,135,8.1,11.0,71,0.00,,CLR,0.00,VWS V14.01,2013-03-18 18:33:00,
2013-03-18 14:38:00,33.6,25.6,29.76,SE,135,8.1,11.0,72,0.00,,CLR,0.00,VWS V14.01,2013-03-18 18:38:00,
2013-03-18 14:43:00,33.6,25.6,29.76,SE,135,8.1,11.0,72,0.00,,CLR,0.00,VWS V14.01,2013-03-18 18:43:00,
2013-03-18 14:49:00,33.6,25.6,29.71,SE,135,8.1,11.0,72,0.00,,CLR,0.00,VWS V14.01,2013-03-18 18:49:00,
2013-03-18 14:54:00,33.6,25.6,29.71,SE,135,8.1,11.0,72,0.00,,CLR,0.00,VWS V14.01,2013-03-18 18:54:00,
2013-03-18 14:59:00,33.4,25.4,29.71,SE,135,8.1,11.0,72,0.00,,CLR,0.00,VWS V14.01,2013-03-18 18:59:00,
2013-03-18 15:00:00,33.6,25.6,29.68,SE,135,8.1,11.0,72,0.00,,CLR,0.00,VWS V14.01,2013-03-18 19:00:00,
2013-03-18 15:04:00,33.8,25.7,29.68,SE,135,8.1,8.1,72,0.00,,CLR,0.00,VWS V14.01,2013-03-18 19:04:00,
2013-03-18 15:09:00,33.6,25.9,29.68,SE,135,8.1,8.1,73,0.00,,CLR,0.00,VWS V14.01,2013-03-18 19:09:00,
2013-03-18 15:14:00,33.8,26.1,29.68,ESE,112,6.3,8.1,73,0.00,,CLR,0.00,VWS V14.01,2013-03-18 19:14:00,
2013-03-18 15:19:00,33.6,26.2,29.68,ESE,112,6.3,8.1,74,0.00,,CLR,0.00,VWS V14.01,2013-03-18 19:19:00,
2013-03-18 15:24:00,33.6,26.2,29.68,ESE,112,20.8,20.8,74,0.00,,CLR,0.00,VWS V14.01,2013-03-18 19:24:00,
2013-03-18 15:29:00,33.6,26.6,29.68,ESE,112,20.8,20.8,75,0.00,,CLR,0.00,VWS V14.01,2013-03-18 19:29:00,
2013-03-18 15:34:00,33.6,26.9,29.68,SE,135,15.7,20.8,76,0.00,,CLR,0.00,VWS V14.01,2013-03-18 19:34:00,
2013-03-18 15:39:00,33.4,26.7,29.68,SE,135,15.7,20.8,76,0.00,,CLR,0.00,VWS V14.01,2013-03-18 19:39:00,
2013-03-18 15:44:00,33.8,27.4,29.68,SE,135,11.0,20.8,77,0.00,,CLR,0.00,VWS V14.01,2013-03-18 19:44:00,
2013-03-18 15:49:00,33.8,27.4,29.65,ESE,112,8.5,20.8,77,0.00,,CLR,0.00,VWS V14.01,2013-03-18 19:49:00,
2013-03-18 15:54:00,33.6,27.2,29.65,ESE,112,8.5,20.8,77,0.00,,CLR,0.00,VWS V14.01,2013-03-18 19:54:00,
2013-03-18 15:59:00,33.8,27.7,29.65,ESE,112,8.7,20.8,78,0.00,,CLR,0.00,VWS V14.01,2013-03-18 19:59:00,
2013-03-18 16:00:00,34.0,27.9,29.62,ESE,112,8.7,20.8,78,0.00,,CLR,0.00,VWS V14.01,2013-03-18 20:00:00,
2013-03-18 16:04:00,33.8,27.7,29.62,ESE,112,8.7,8.7,78,0.00,,CLR,0.00,VWS V14.01,2013-03-18 20:04:00,
2013-03-18 16:09:00,34.0,27.9,29.62,ESE,112,8.7,8.7,78,0.00,,CLR,0.00,VWS V14.01,2013-03-18 20:09:00,
2013-03-18 16:15:00,33.8,27.7,29.62,ESE,112,8.7,8.7,78,0.00,,CLR,0.00,VWS V14.01,2013-03-18 20:15:00,
2013-03-18 16:20:00,33.6,27.8,29.65,ESE,112,8.7,8.7,79,0.00,,CLR,0.00,VWS V14.01,2013-03-18 20:20:00,
2013-03-18 16:25:00,33.3,28.1,29.65,ESE,112,8.7,8.7,81,0.00,,CLR,0.00,VWS V14.01,2013-03-18 20:25:00,
2013-03-18 16:30:00,33.3,28.4,29.65,ESE,112,8.7,8.7,82,0.00,,CLR,0.00,VWS V14.01,2013-03-18 20:30:00,
2013-03-18 16:35:00,33.3,28.7,29.65,ESE,112,8.7,8.7,83,0.00,,CLR,0.00,VWS V14.01,2013-03-18 20:35:00,
2013-03-18 16:40:00,33.3,28.7,29.65,ESE,112,8.7,8.7,83,0.00,,CLR,0.00,VWS V14.01,2013-03-18 20:40:00,
2013-03-18 16:45:00,33.3,29.0,29.65,ESE,112,8.7,8.7,84,0.00,,CLR,0.00,VWS V14.01,2013-03-18 20:45:00,
2013-03-18 16:50:00,33.4,29.4,29.65,ESE,112,8.7,8.7,85,0.00,,CLR,0.00,VWS V14.01,2013-03-18 20:50:00,
2013-03-18 16:56:00,33.6,29.6,29.65,ESE,112,7.2,8.7,85,0.00,,CLR,0.00,VWS V14.01,2013-03-18 20:56:00,
2013-03-18 17:01:00,33.6,29.6,29.65,ESE,112,7.8,11.0,85,0.00,,CLR,0.00,VWS V14.01,2013-03-18 21:01:00,
2013-03-18 17:06:00,33.6,29.6,29.65,ESE,112,7.6,11.0,85,0.00,,CLR,0.00,VWS V14.01,2013-03-18 21:06:00,
2013-03-18 17:11:00,33.6,29.9,29.65,ESE,112,8.5,11.0,86,0.00,,CLR,0.00,VWS V14.01,2013-03-18 21:11:00,
2013-03-18 17:16:00,33.6,30.2,29.59,ESE,112,8.5,11.0,87,0.00,,CLR,0.00,VWS V14.01,2013-03-18 21:16:00,
2013-03-18 17:22:00,33.6,30.2,29.59,ESE,112,8.5,11.0,87,0.00,,CLR,0.00,VWS V14.01,2013-03-18 21:22:00,
2013-03-18 17:27:00,33.6,30.2,29.59,ESE,112,8.5,11.0,87,0.00,,CLR,0.00,VWS V14.01,2013-03-18 21:27:00,
2013-03-18 17:33:00,33.4,30.0,29.62,ESE,112,8.5,11.0,87,0.00,,CLR,0.00,VWS V14.01,2013-03-18 21:33:00,
2013-03-18 17:38:00,33.4,30.0,29.62,ESE,112,8.5,11.0,87,0.00,,CLR,0.00,VWS V14.01,2013-03-18 21:38:00,
2013-03-18 17:43:00,33.4,30.3,29.62,ESE,112,8.5,11.0,88,0.00,,CLR,0.00,VWS V14.01,2013-03-18 21:43:00,
2013-03-18 17:48:00,33.4,30.3,29.62,ESE,112,8.5,11.0,88,0.00,,CLR,0.00,VWS V14.01,2013-03-18 21:48:00,
2013-03-18 17:53:00,33.4,30.5,29.62,ESE,112,8.5,11.0,89,0.00,,CLR,0.00,VWS V14.01,2013-03-18 21:53:00,
2013-03-18 17:59:00,33.4,30.5,29.62,ESE,112,8.5,11.0,89,0.00,,CLR,0.00,VWS V14.01,2013-03-18 21:59:00,
2013-03-18 18:00:00,33.3,30.6,29.59,ESE,112,8.5,11.0,90,0.00,,CLR,0.00,VWS V14.01,2013-03-18 22:00:00,
2013-03-18 18:04:00,33.3,30.6,29.59,ESE,112,8.5,8.5,90,0.00,,CLR,0.00,VWS V14.01,2013-03-18 22:04:00,
2013-03-18 18:09:00,33.3,30.6,29.59,SSE,158,5.8,8.5,90,0.00,,CLR,0.00,VWS V14.01,2013-03-18 22:09:00,
2013-03-18 18:14:00,33.3,30.9,29.59,SSE,158,5.8,8.5,91,0.00,,CLR,0.00,VWS V14.01,2013-03-18 22:14:00,
2013-03-18 18:19:00,33.3,31.2,29.62,SSE,158,5.8,8.5,92,0.00,,CLR,0.00,VWS V14.01,2013-03-18 22:19:00,
2013-03-18 18:24:00,33.3,31.2,29.62,SSE,158,5.8,8.5,92,0.00,,CLR,0.00,VWS V14.01,2013-03-18 22:24:00,
2013-03-18 18:29:00,33.3,31.5,29.62,SE,135,6.0,8.5,93,0.00,,CLR,0.00,VWS V14.01,2013-03-18 22:29:00,
2013-03-18 18:35:00,33.3,31.7,29.59,SE,135,6.0,8.5,94,0.00,,CLR,0.00,VWS V14.01,2013-03-18 22:35:00,
2013-03-18 18:40:00,33.3,32.0,29.59,SE,135,6.0,8.5,95,0.00,,CLR,0.00,VWS V14.01,2013-03-18 22:40:00,
2013-03-18 18:45:00,33.3,32.0,29.59,SE,135,6.0,8.5,95,0.00,,CLR,0.00,VWS V14.01,2013-03-18 22:45:00,
2013-03-18 18:50:00,33.3,32.2,29.59,SE,135,6.0,8.5,96,0.00,,CLR,0.00,VWS V14.01,2013-03-18 22:50:00,
2013-03-18 18:55:00,33.3,32.2,29.59,SE,135,6.0,8.5,96,0.00,,CLR,0.00,VWS V14.01,2013-03-18 22:55:00,
2013-03-18 19:00:00,33.3,32.2,29.59,SE,135,6.0,8.5,96,0.00,,CLR,0.00,VWS V14.01,2013-03-18 23:00:00,
2013-03-18 19:05:00,33.3,32.5,29.59,SE,135,6.0,6.0,97,0.00,,CLR,0.00,VWS V14.01,2013-03-18 23:05:00,
2013-03-18 19:10:00,33.3,32.5,29.59,SE,135,6.0,6.0,97,0.00,,CLR,0.00,VWS V14.01,2013-03-18 23:10:00,
2013-03-18 19:15:00,33.3,32.5,29.59,SE,135,6.0,6.0,97,0.00,,CLR,0.00,VWS V14.01,2013-03-18 23:15:00,
2013-03-18 19:21:00,33.3,32.5,29.59,SE,135,6.0,6.0,97,0.00,,CLR,0.00,VWS V14.01,2013-03-18 23:21:00,
2013-03-18 19:26:00,33.3,32.5,29.59,SE,135,6.0,6.0,97,0.00,,CLR,0.00,VWS V14.01,2013-03-18 23:26:00,
2013-03-18 19:31:00,33.3,32.5,29.59,SE,135,6.0,6.0,97,0.00,,CLR,0.00,VWS V14.01,2013-03-18 23:31:00,
2013-03-18 19:36:00,33.3,32.5,29.62,SE,135,6.0,6.0,97,0.00,,CLR,0.00,VWS V14.01,2013-03-18 23:36:00,
2013-03-18 19:41:00,33.3,32.5,29.62,SE,135,6.0,6.0,97,0.00,,CLR,0.00,VWS V14.01,2013-03-18 23:41:00,
2013-03-18 19:46:00,33.1,32.3,29.59,SE,135,6.0,6.0,97,0.00,,CLR,0.00,VWS V14.01,2013-03-18 23:46:00,
2013-03-18 19:52:00,33.1,32.3,29.59,SE,135,6.0,6.0,97,0.00,,CLR,0.00,VWS V14.01,2013-03-18 23:52:00,
2013-03-18 19:58:00,33.1,32.3,29.59,SE,135,6.0,6.0,97,0.00,,CLR,0.00,VWS V14.01,2013-03-18 23:58:00,
2013-03-18 20:00:00,33.1,32.3,29.59,SE,135,6.0,6.0,97,0.00,,CLR,0.00,VWS V14.01,2013-03-19 00:00:00,
2013-03-18 20:03:00,33.1,32.3,29.59,SE,135,6.0,6.0,97,0.00,,CLR,0.00,VWS V14.01,2013-03-19 00:03:00,
2013-03-18 20:08:00,32.9,32.1,29.59,SE,135,6.0,6.0,97,0.00,,CLR,0.00,VWS V14.01,2013-03-19 00:08:00,
2013-03-18 20:13:00,32.9,32.1,29.59,SE,135,6.0,6.0,97,0.00,,CLR,0.00,VWS V14.01,2013-03-19 00:13:00,
2013-03-18 20:18:00,32.9,32.4,29.59,SE,135,6.0,6.0,98,0.00,,CLR,0.00,VWS V14.01,2013-03-19 00:18:00,
2013-03-18 20:24:00,32.9,32.4,29.59,SE,135,6.0,6.0,98,0.00,,CLR,0.00,VWS V14.01,2013-03-19 00:24:00,
2013-03-18 20:29:00,32.9,32.4,29.59,SE,135,6.0,6.0,98,0.00,,CLR,0.00,VWS V14.01,2013-03-19 00:29:00,
2013-03-18 20:34:00,32.9,32.4,29.59,SE,135,6.0,6.0,98,0.00,,CLR,0.00,VWS V14.01,2013-03-19 00:34:00,
2013-03-18 20:39:00,32.9,32.4,29.59,SE,135,6.0,6.0,98,0.00,,CLR,0.00,VWS V14.01,2013-03-19 00:39:00,
2013-03-18 20:44:00,32.9,32.4,29.59,SE,135,6.0,6.0,98,0.00,,CLR,0.00,VWS V14.01,2013-03-19 00:44:00,
2013-03-18 20:49:00,32.9,32.4,29.59,SE,135,6.0,6.0,98,0.00,,CLR,0.00,VWS V14.01,2013-03-19 00:49:00,
2013-03-18 20:54:00,33.1,32.6,29.59,SE,135,6.0,6.0,98,0.00,,CLR,0.00,VWS V14.01,2013-03-19 00:54:00,
2013-03-18 20:59:00,33.1,32.6,29.59,SE,135,6.0,6.0,98,0.00,,CLR,0.00,VWS V14.01,2013-03-19 00:59:00,
2013-03-18 21:00:00,33.1,32.6,29.59,SE,135,6.0,6.0,98,0.00,,CLR,0.00,VWS V14.01,2013-03-19 01:00:00,
2013-03-18 21:04:00,33.1,32.6,29.59,SE,135,6.0,6.0,98,0.00,,CLR,0.00,VWS V14.01,2013-03-19 01:04:00,
2013-03-18 21:09:00,33.1,32.6,29.59,SE,135,6.0,6.0,98,0.00,,CLR,0.00,VWS V14.01,2013-03-19 01:09:00,
2013-03-18 21:14:00,33.1,32.6,29.59,SE,135,6.0,6.0,98,0.00,,CLR,0.00,VWS V14.01,2013-03-19 01:14:00,
2013-03-18 21:20:00,33.3,32.8,29.59,SE,135,6.0,6.0,98,0.00,,CLR,0.00,VWS V14.01,2013-03-19 01:20:00,
2013-03-18 21:25:00,33.3,32.8,29.59,SE,135,6.0,6.0,98,0.00,,CLR,0.00,VWS V14.01,2013-03-19 01:25:00,
2013-03-18 21:30:00,33.3,32.8,29.59,SE,135,6.0,6.0,98,0.00,,CLR,0.00,VWS V14.01,2013-03-19 01:30:00,
2013-03-18 21:35:00,33.3,32.8,29.59,SE,135,6.0,6.0,98,0.00,,CLR,0.00,VWS V14.01,2013-03-19 01:35:00,
2013-03-18 21:40:00,33.4,32.9,29.59,SE,135,6.0,6.0,98,0.00,,CLR,0.00,VWS V14.01,2013-03-19 01:40:00,
2013-03-18 21:46:00,33.4,32.9,29.59,SE,135,6.0,6.0,98,0.00,,CLR,0.00,VWS V14.01,2013-03-19 01:46:00,
2013-03-18 21:51:00,33.6,33.1,29.62,SE,135,6.0,6.0,98,0.00,,CLR,0.00,VWS V14.01,2013-03-19 01:51:00,
2013-03-18 21:56:00,33.6,33.1,29.62,SE,135,6.0,6.0,98,0.00,,CLR,0.00,VWS V14.01,2013-03-19 01:56:00,
2013-03-18 22:00:00,33.8,33.3,29.62,SE,135,6.0,6.0,98,0.00,,CLR,0.00,VWS V14.01,2013-03-19 02:00:00,
2013-03-18 22:01:00,33.6,33.1,29.62,SE,135,6.0,6.0,98,0.00,,CLR,0.00,VWS V14.01,2013-03-19 02:01:00,
2013-03-18 22:06:00,33.8,33.3,29.62,SE,135,6.0,6.0,98,0.00,,CLR,0.00,VWS V14.01,2013-03-19 02:06:00,
2013-03-18 22:12:00,33.8,33.3,29.62,SE,135,6.0,6.0,98,0.00,,CLR,0.00,VWS V14.01,2013-03-19 02:12:00,
2013-03-18 22:18:00,33.8,33.3,29.62,SE,135,6.0,6.0,98,0.00,,CLR,0.00,VWS V14.01,2013-03-19 02:18:00,
2013-03-18 22:23:00,34.0,33.5,29.62,SE,135,6.0,6.0,98,0.00,,CLR,0.00,VWS V14.01,2013-03-19 02:23:00,
2013-03-18 22:28:00,34.0,32.7,29.62,SE,135,6.0,6.0,95,0.00,,CLR,0.00,VWS V14.01,2013-03-19 02:28:00,
2013-03-18 22:34:00,34.0,32.2,29.62,SE,135,6.0,6.0,93,0.00,,CLR,0.00,VWS V14.01,2013-03-19 02:34:00,
2013-03-18 22:39:00,34.0,31.6,29.62,SE,135,6.0,6.0,91,0.00,,CLR,0.00,VWS V14.01,2013-03-19 02:39:00,
2013-03-18 22:44:00,34.0,30.8,29.62,SE,135,6.0,6.0,88,0.04,,CLR,0.04,VWS V14.01,2013-03-19 02:44:00,
2013-03-18 22:49:00,34.0,30.5,29.62,SE,135,6.0,6.0,87,0.04,,CLR,0.04,VWS V14.01,2013-03-19 02:49:00,
2013-03-18 22:54:00,34.0,30.2,29.62,SE,135,6.0,6.0,86,0.04,,CLR,0.04,VWS V14.01,2013-03-19 02:54:00,
2013-03-18 22:59:00,34.0,30.0,29.62,SE,135,6.0,6.0,85,0.04,,CLR,0.04,VWS V14.01,2013-03-19 02:59:00,
2013-03-18 23:00:00,34.0,30.0,29.62,SE,135,6.0,6.0,85,0.04,,CLR,0.04,VWS V14.01,2013-03-19 03:00:00,
2013-03-18 23:04:00,34.0,30.0,29.62,SE,135,6.0,6.0,85,0.04,,CLR,0.04,VWS V14.01,2013-03-19 03:04:00,
2013-03-18 23:09:00,34.0,29.7,29.62,SE,135,6.0,6.0,84,0.04,,CLR,0.04,VWS V14.01,2013-03-19 03:09:00,
2013-03-18 23:14:00,34.0,29.4,29.62,SE,135,6.0,6.0,83,0.04,,CLR,0.04,VWS V14.01,2013-03-19 03:14:00,
2013-03-18 23:19:00,34.0,29.4,29.59,SE,135,6.0,6.0,83,0.04,,CLR,0.04,VWS V14.01,2013-03-19 03:19:00,
2013-03-18 23:25:00,34.2,29.2,29.59,SE,135,6.0,6.0,82,0.04,,CLR,0.04,VWS V14.01,2013-03-19 03:25:00,
2013-03-18 23:30:00,34.2,29.2,29.59,SE,135,6.0,6.0,82,0.04,,CLR,0.04,VWS V14.01,2013-03-19 03:30:00,
2013-03-18 23:35:00,34.2,29.2,29.62,SE,135,6.0,6.0,82,0.04,,CLR,0.04,VWS V14.01,2013-03-19 03:35:00,
2013-03-18 23:40:00,34.2,29.0,29.62,SE,135,6.0,6.0,81,0.04,,CLR,0.04,VWS V14.01,2013-03-19 03:40:00,
2013-03-18 23:45:00,34.2,29.0,29.62,SE,135,6.0,6.0,81,0.04,,CLR,0.04,VWS V14.01,2013-03-19 03:45:00,
2013-03-18 23:50:00,34.2,29.2,29.62,SE,135,6.0,6.0,82,0.04,,CLR,0.04,VWS V14.01,2013-03-19 03:50:00,
2013-03-18 23:55:00,34.2,28.6,29.62,SE,135,6.0,6.0,80,0.04,,CLR,0.04,VWS V14.01,2013-03-19 03:55:00,